Home   Weather   Lexington-Fayette   Past weeks

Flag for USA Past Weather in Lexington-Fayette, Kentucky, USA — Yesterday and Last 2 Weeks

Now
26 °F

Partly sunny.


Feels Like: N/A
Forecast: 13 / 32 °F
Wind: N/A

Location: Blue Grass Airport

Current Time: Dec 10, 2016 at 11:48:56 am

Latest Report: Dec 10, 2016 at 11:04 am


Visibility: 10 mi

Pressure: 30.59 "Hg

Humidity: 60%

Dew Point: 14 °F

Location of Lexington-FayetteLocation

Past Weather in Lexington-Fayette — Graph

°F

Lexington-Fayette Temperature Yesterday

Maximum temperature yesterday: 25 °F (at 1:54 pm)
Minimum temperature yesterday: 21 °F (at 5:54 am)
Average temperature yesterday: 23 °F

High & Low Weather Summary for the Past Weeks

 TemperatureHumidityPressure
High65 °F (Nov 29, 2:54 pm)93% (Nov 28, 10:01 pm)30.63 "Hg (Nov 28, 10:01 pm)
Low17 °F (Dec 10, 6:54 am)40% (Dec 7, 2:54 pm)29.45 "Hg (Nov 28, 8:54 pm)
Average41 °F70%30.10 "Hg
* Reported Nov 25 9:54 am — Dec 10 9:54 am, Lexington-Fayette, Weather by CustomWeather, © 2016

Note: Actual official high and low records may vary slightly from our data, if they occured in-between our weather recording intervals... More about our weather records

Advertising

Lexington-Fayette Weather History for the Previous 24 Hours

Scroll right to see more
 ConditionsComfort  
Time TempWeatherWind HumidityBarometerVisibility
9:54 am
Sat, Dec 10
24 °FSunny.6 mph68%30.63 "Hg10 mi
8:54 am19 °FIce fog.5 mph85%30.62 "Hg5 mi
7:54 am17 °FSunny.No wind80%30.62 "Hg5 mi
6:54 am17 °FClear.6 mph80%30.59 "Hg7 mi
5:54 am19 °FClear.3 mph77%30.58 "Hg8 mi
4:54 am20 °FOvercast.3 mph78%30.59 "Hg10 mi
3:54 am22 °FMostly cloudy.3 mph75%30.58 "Hg10 mi
2:54 am22 °FOvercast.3 mph75%30.58 "Hg10 mi
1:54 am22 °FOvercast.3 mph75%30.59 "Hg10 mi
12:54 am21 °FOvercast.No wind74%30.58 "Hg10 mi
11:54 pm
Fri, Dec 9
22 °FOvercast.No wind66%30.58 "Hg10 mi
10:54 pm22 °FOvercast.5 mph66%30.57 "Hg10 mi
9:54 pm22 °FOvercast.3 mph66%30.57 "Hg10 mi
8:54 pm23 °FOvercast.7 mph65%30.58 "Hg10 mi
7:54 pm24 °FOvercast.6 mph60%30.58 "Hg10 mi
6:54 pm24 °FOvercast.6 mph62%30.58 "Hg10 mi
5:54 pm24 °FOvercast.5 mph62%30.58 "Hg10 mi
4:54 pm24 °FOvercast.6 mph60%30.58 "Hg10 mi
3:54 pm24 °FOvercast.6 mph60%30.57 "Hg10 mi
2:54 pm25 °FOvercast.6 mph60%30.56 "Hg10 mi
1:54 pm25 °FOvercast.6 mph60%30.56 "Hg10 mi
12:54 pm24 °FOvercast.8 mph60%30.58 "Hg10 mi
11:54 am23 °FOvercast.7 mph63%30.59 "Hg10 mi
Weather by CustomWeather, © 2016

See weather overviewHow to use our weather pages